Multibeam Report for RR0916


Ship Name: Roger Revelle
Chief Scientist: Bohnenstiehl, DelWayne
North Carolina State University
Source Organization: Rolling Deck to Repository
Start Date: 2009-12-09
End Date: 2009-12-15


View ISO Metadata

Visit the full NCEI Bathymetry Viewer


Multibeam Bathymetry

Cruise Details

Project: Assessment of T-wave Processes and Hydroacoustic Monitoring Capabilities in the Lau Basin
Instrument: Simrad EM122

Data Quality

Number of Files: 97
Number of Records: 118713
BATHYMETRY DATA Quantity Percentage
Number of Beams 51283584 100%
Number of Good Beams 47727916 93.07%
Number of Zero Beams 0 0%
Number of Flagged Beams 3555668 6.93%
AMPLITUDE DATA Quantity Percentage
Number of Beams 51283584 100%
Number of Good Beams 47727916 93.07%
Number of Zero Beams 0 0%
Number of Flagged Beams 3555668 6.93%
SIDESCAN DATA Quantity Percentage
Number of Pixels 121561088 100%
Number of Good Pixels 106614343 87.7%
Number of Zero Pixels 0 0%
Number of Flagged Pixels 14946745 12.3%

Navigation Totals

Total Time: 152.0169 hours
Total Track Length: 2579.1898 km
Average Speed: 16.966 km/hr (9.1609 knots)

Cruise Bounds

Northern Extent: -14.683666
Southern Extent: -21.43889
Western Extent: 178.59975
Eastern Extent: -173.61894

Limits

Minimum Sonar Depth 2.7217 Maximum Sonar Depth 8.4544
Minimum Altitude 0 Maximum Altitude 11722.7441
Minimum Depth 4.57 Maximum Depth 11999.9375
Minimum Amplitude 0 Maximum Amplitude 7
Minimum Sidescan 0 Maximum Sidescan 9.63

File Information

Full Resolution Bathymetry as collected (raw): 95

Files File Size Description
0000_20091209_043628_RV_Revelle.all.mb58.gz 4.47MB Kongsberg multibeam vendor format
0000_20091209_192318_RV_Revelle.all.mb58.gz 175.54MB Kongsberg multibeam vendor format
0001_20091209_044631_RV_Revelle.all.mb58.gz 126.56MB Kongsberg multibeam vendor format
0001_20091209_212320_RV_Revelle.all.mb58.gz 305.65MB Kongsberg multibeam vendor format
0002_20091209_064635_RV_Revelle.all.mb58.gz 6.86MB Kongsberg multibeam vendor format
0002_20091209_232318_RV_Revelle.all.mb58.gz 98.84MB Kongsberg multibeam vendor format
0003_20091209_065408_RV_Revelle.all.mb58.gz 118.45MB Kongsberg multibeam vendor format
0003_20091210_002847_RV_Revelle.all.mb58.gz 27.44MB Kongsberg multibeam vendor format
0004_20091209_085353_RV_Revelle.all.mb58.gz 152.21MB Kongsberg multibeam vendor format
0004_20091210_010422_RV_Revelle.all.mb58.gz 372.1KB Kongsberg multibeam vendor format
0005_20091209_105352_RV_Revelle.all.mb58.gz 153.36MB Kongsberg multibeam vendor format
0005_20091210_011336_RV_Revelle.all.mb58.gz 167.47MB Kongsberg multibeam vendor format
0006_20091209_125358_RV_Revelle.all.mb58.gz 154.87MB Kongsberg multibeam vendor format
0006_20091210_031338_RV_Revelle.all.mb58.gz 158.55MB Kongsberg multibeam vendor format
0007_20091209_145353_RV_Revelle.all.mb58.gz 167.45MB Kongsberg multibeam vendor format
0007_20091210_051344_RV_Revelle.all.mb58.gz 164.38MB Kongsberg multibeam vendor format
0008_20091209_165353_RV_Revelle.all.mb58.gz 176.39MB Kongsberg multibeam vendor format
0008_20091210_071343_RV_Revelle.all.mb58.gz 110.31MB Kongsberg multibeam vendor format
0009_20091209_185353_RV_Revelle.all.mb58.gz 29.77MB Kongsberg multibeam vendor format
0009_20091210_083348_RV_Revelle.all.mb58.gz 160.94MB Kongsberg multibeam vendor format
0010_20091209_191651_RV_Revelle.all.mb58.gz 2.26MB Kongsberg multibeam vendor format
0010_20091210_103339_RV_Revelle.all.mb58.gz 159.30MB Kongsberg multibeam vendor format
0011_20091210_123339_RV_Revelle.all.mb58.gz 156.73MB Kongsberg multibeam vendor format
0012_20091210_143338_RV_Revelle.all.mb58.gz 158.50MB Kongsberg multibeam vendor format
0013_20091210_163344_RV_Revelle.all.mb58.gz 157.60MB Kongsberg multibeam vendor format
0014_20091210_183340_RV_Revelle.all.mb58.gz 159.22MB Kongsberg multibeam vendor format
0015_20091210_203341_RV_Revelle.all.mb58.gz 164.51MB Kongsberg multibeam vendor format
0016_20091210_223336_RV_Revelle.all.mb58.gz 157.82MB Kongsberg multibeam vendor format
0017_20091211_003337_RV_Revelle.all.mb58.gz 159.84MB Kongsberg multibeam vendor format
0018_20091211_023344_RV_Revelle.all.mb58.gz 153.74MB Kongsberg multibeam vendor format
0019_20091211_043337_RV_Revelle.all.mb58.gz 158.72MB Kongsberg multibeam vendor format
0020_20091211_063342_RV_Revelle.all.mb58.gz 163.39MB Kongsberg multibeam vendor format
0021_20091211_083337_RV_Revelle.all.mb58.gz 153.89MB Kongsberg multibeam vendor format
0022_20091211_103341_RV_Revelle.all.mb58.gz 157.95MB Kongsberg multibeam vendor format
0023_20091211_123343_RV_Revelle.all.mb58.gz 156.22MB Kongsberg multibeam vendor format
0024_20091211_143340_RV_Revelle.all.mb58.gz 150.87MB Kongsberg multibeam vendor format
0025_20091211_163344_RV_Revelle.all.mb58.gz 151.84MB Kongsberg multibeam vendor format
0026_20091211_183342_RV_Revelle.all.mb58.gz 116.81MB Kongsberg multibeam vendor format
0027_20091211_222258_RV_Revelle.all.mb58.gz 176.6KB Kongsberg multibeam vendor format
0028_20091211_222429_RV_Revelle.all.mb58.gz 1.20MB Kongsberg multibeam vendor format
0029_20091212_021358_RV_Revelle.all.mb58.gz 22.1KB Kongsberg multibeam vendor format
0030_20091212_021626_RV_Revelle.all.mb58.gz 156.52MB Kongsberg multibeam vendor format
0031_20091212_041626_RV_Revelle.all.mb58.gz 143.30MB Kongsberg multibeam vendor format
0032_20091212_061623_RV_Revelle.all.mb58.gz 149.26MB Kongsberg multibeam vendor format
0033_20091212_081617_RV_Revelle.all.mb58.gz 152.73MB Kongsberg multibeam vendor format
0034_20091212_101629_RV_Revelle.all.mb58.gz 148.98MB Kongsberg multibeam vendor format
0035_20091212_121616_RV_Revelle.all.mb58.gz 147.90MB Kongsberg multibeam vendor format
0036_20091212_141617_RV_Revelle.all.mb58.gz 150.31MB Kongsberg multibeam vendor format
0037_20091212_161618_RV_Revelle.all.mb58.gz 146.53MB Kongsberg multibeam vendor format
0038_20091212_181617_RV_Revelle.all.mb58.gz 114.15MB Kongsberg multibeam vendor format
0039_20091212_202015_RV_Revelle.all.mb58.gz 151.94MB Kongsberg multibeam vendor format
0040_20091212_222021_RV_Revelle.all.mb58.gz 161.56MB Kongsberg multibeam vendor format
0041_20091213_002019_RV_Revelle.all.mb58.gz 101.75MB Kongsberg multibeam vendor format
0042_20091213_021215_RV_Revelle.all.mb58.gz 152.78MB Kongsberg multibeam vendor format
0043_20091213_041225_RV_Revelle.all.mb58.gz 155.62MB Kongsberg multibeam vendor format
0044_20091213_061225_RV_Revelle.all.mb58.gz 157.94MB Kongsberg multibeam vendor format
0045_20091213_081222_RV_Revelle.all.mb58.gz 152.73MB Kongsberg multibeam vendor format
0046_20091213_101222_RV_Revelle.all.mb58.gz 161.78MB Kongsberg multibeam vendor format
0047_20091213_121221_RV_Revelle.all.mb58.gz 164.06MB Kongsberg multibeam vendor format
0048_20091213_141219_RV_Revelle.all.mb58.gz 161.23MB Kongsberg multibeam vendor format
0049_20091213_161216_RV_Revelle.all.mb58.gz 167.04MB Kongsberg multibeam vendor format
0050_20091213_181222_RV_Revelle.all.mb58.gz 163.83MB Kongsberg multibeam vendor format
0051_20091213_201220_RV_Revelle.all.mb58.gz 156.38MB Kongsberg multibeam vendor format
0052_20091213_221220_RV_Revelle.all.mb58.gz 155.43MB Kongsberg multibeam vendor format
0053_20091214_001222_RV_Revelle.all.mb58.gz 177.32MB Kongsberg multibeam vendor format
0054_20091214_021218_RV_Revelle.all.mb58.gz 155.91MB Kongsberg multibeam vendor format
0055_20091214_041223_RV_Revelle.all.mb58.gz 154.20MB Kongsberg multibeam vendor format
0056_20091214_061220_RV_Revelle.all.mb58.gz 156.20MB Kongsberg multibeam vendor format
0057_20091214_081222_RV_Revelle.all.mb58.gz 156.42MB Kongsberg multibeam vendor format
0058_20091214_101222_RV_Revelle.all.mb58.gz 158.67MB Kongsberg multibeam vendor format
0059_20091214_121224_RV_Revelle.all.mb58.gz 152.30MB Kongsberg multibeam vendor format
0060_20091214_141218_RV_Revelle.all.mb58.gz 153.94MB Kongsberg multibeam vendor format
0061_20091214_161222_RV_Revelle.all.mb58.gz 171.05MB Kongsberg multibeam vendor format
0062_20091214_181218_RV_Revelle.all.mb58.gz 189.80MB Kongsberg multibeam vendor format
0063_20091214_201216_RV_Revelle.all.mb58.gz 41.25MB Kongsberg multibeam vendor format
0064_20091214_204443_RV_Revelle.all.mb58.gz 166.76MB Kongsberg multibeam vendor format
0065_20091214_224446_RV_Revelle.all.mb58.gz 161.15MB Kongsberg multibeam vendor format
0066_20091215_004444_RV_Revelle.all.mb58.gz 161.06MB Kongsberg multibeam vendor format
0067_20091215_024440_RV_Revelle.all.mb58.gz 160.13MB Kongsberg multibeam vendor format
0068_20091215_044446_RV_Revelle.all.mb58.gz 162.54MB Kongsberg multibeam vendor format
0069_20091215_064447_RV_Revelle.all.mb58.gz 161.38MB Kongsberg multibeam vendor format
0070_20091215_084447_RV_Revelle.all.mb58.gz 188.05MB Kongsberg multibeam vendor format
0071_20091215_104453_RV_Revelle.all.mb58.gz 104.33MB Kongsberg multibeam vendor format
0072_20091215_120631_RV_Revelle.all.mb58.gz 93.71MB Kongsberg multibeam vendor format
0073_20091215_133426_RV_Revelle.all.mb58.gz 85.92MB Kongsberg multibeam vendor format
0074_20091215_143536_RV_Revelle.all.mb58.gz 124.50MB Kongsberg multibeam vendor format
0075_20091215_164312_RV_Revelle.all.mb58.gz 4.92MB Kongsberg multibeam vendor format
0076_20091215_171721_RV_Revelle.all.mb58.gz 0.74MB Kongsberg multibeam vendor format
0078_20091215_171811_RV_Revelle.all.mb58.gz 1.52MB Kongsberg multibeam vendor format
0079_20091215_172039_RV_Revelle.all.mb58.gz 0.76MB Kongsberg multibeam vendor format
0080_20091215_172130_RV_Revelle.all.mb58.gz 12.35MB Kongsberg multibeam vendor format
0081_20091215_173400_RV_Revelle.all.mb58.gz 206.65MB Kongsberg multibeam vendor format
0082_20091215_193357_RV_Revelle.all.mb58.gz 201.22MB Kongsberg multibeam vendor format
0083_20091215_213026_RV_Revelle.all.mb58.gz 184.01MB Kongsberg multibeam vendor format
0084_20091215_233013_RV_Revelle.all.mb58.gz 197.12MB Kongsberg multibeam vendor format

Metadata Files: 1

Files File Size Description
RR0916_Multibeam.xml NGDC created ISO metadata

Ancillary Files: 1

Files File Size Description
xbt.tar.gz 88.5KB Expendable Bathythermograph (XBT) data